Location: Dzierzno
(50.6159°N, 19.2852°E)
Time: 23:25:00
(UTC+00:00)

Sich 1 Rocket - Pass Details

Date: 18 November 2025
Orbit: 611 x 646 km, 82.5° (Epoch: 05 December)

Event Time Altitude Azimuth Distance (km) Brightness Sun altitude
Rises 16:29:23 0° 163° (SSE) 2,941 7.0 -15.1°
Reaches altitude 10° 16:31:47 10° 154° (SSE) 2,039 6.1 -15.4°
Maximum altitude 16:35:50 33° 90° (E) 1,081 4.2 -16.1°
Enters shadow 16:37:30 25° 51° (NE) 1,295 4.7 -16.3°
